Weather in Varna

Russia / Chelyabinsk Oblast     53°22′56″N   60°58′31″E
temp.,
°C
wind,
m/s
gust,
m/s
humid.,
%
clouds,
%
prec.,
mm/h
press.,
hPa
HPBL,
m
28 september, tue
tue2823:00+1ne81699100 6.1 1014841
02:00+1ne81599100 1.9 1014870
05:00+1ne81699100 3.4 1013842
08:00+1nne91699100 2.6 1013919
11:00+1nne91699100 5.3 1013969
14:00+1nne91699100 1.4 1014943
17:00+2nne91799100 2.8 1015985
20:00+2nne91698100 0.6 10171012
29 september, wed
wed2923:00+3nne81580100 0.6 1017923
02:00+2nne81581100 0.0 1018723
05:00+2nne71490100 0.0 1020617
08:00+1nne71391100 0.0 1021584
11:00+3nne71185100 0.0 1022763
14:00+6nne6969100 0.1 10221239
17:00+6nne696797 0.3 1023972
20:00+5nne41175100 0.2 1024416
30 september, thu
thu3023:00+2n4108199 0.2 1025258
02:00+2n4983100 0.0 1026228
05:00+1n498485 0.0 1027188
08:000n498453 0.0 1028237
11:00+5n466414 0.0 1028627
14:00+7n455287 0.0 10271537
17:00+7nw455430 0.1 10271284
20:00+3wnw487938 0.0 1028152
1 october, fri
fri123:00+2wnw37805 0.0 1028118
02:00+1wnw36814 0.0 102896
05:00+1wnw35793 0.0 102885
08:00+1w36774 0.0 1028132
11:00+7wnw455555 0.0 1028600
14:00+5wnw4787100 0.3 1028864
17:00+5nw4793100 0.9 1028845
20:00+5nnw3694100 0.4 1028810
2 october, sat
sat223:00+5n3694100 0.7 1029365
02:00+5nne259396 0.2 1030319
05:00+4n258498 0.3 1031138
08:00+4nne34808 0.0 1032112
11:00+7nnw22655 0.0 1033710
14:00+9nw225481 0.0 10321364
17:00+9wnw235124 0.1 10321343
20:00+6wnw33705 0.0 103341